DW5729 Sheepshead Bay NY US current weather conditions

sailwx.info

Wind from 030

Air temperature 27.2° C
Dewpoint 21.3° C

Last reported at 2020-Aug-14 14:01 UTC.
Time now 2020-Aug-14 14:43 UTC

Location: N 40°36' W 073°57'.
View on Google Maps.

See reports from other nearby stations

  
Tides and Currents Weather Stations Pressure Air Temp Water Temp Dewpoint Dewpoint Depression Visibility Wind Speed Wind Dir Waves Ship Positions
date/time (UTC)wind fromknots sea level pressurealtimeterstation pressurevisibilityair tempwater tempwave heightnotes
2020-Aug-14 14:01 030 27.2
2020-Aug-14 13:46 030 2 gusting 6 27.2
2020-Aug-14 13:31 047 0 gusting 2 26.7
2020-Aug-14 13:16 030 1 gusting 4 26.1
2020-Aug-14 13:00 073 1 gusting 3 25.6
2020-Aug-14 12:46 054 25.6
2020-Aug-14 12:30 063 25.0
2020-Aug-14 12:16 040 1 gusting 3 24.4
2020-Aug-14 12:01 025 0 gusting 2 24.4
2020-Aug-14 11:45 322 23.9
2020-Aug-14 11:31 315 23.9
2020-Aug-14 11:16 023 23.3
2020-Aug-14 11:01 023 23.3
2020-Aug-14 10:46
2020-Aug-14 10:31
2020-Aug-14 10:15
2020-Aug-14 10:00
2020-Aug-14 09:45
2020-Aug-14 09:30
2020-Aug-14 09:15 064 22.8
2020-Aug-14 09:00 311 23.3
2020-Aug-14 08:45 311 23.3
2020-Aug-14 08:30 311 23.3
2020-Aug-14 08:15 311 23.3
2020-Aug-14 08:00 311 23.9
2020-Aug-14 07:45 311 23.9
2020-Aug-14 07:32 311 23.9
2020-Aug-14 07:17 311 23.3
2020-Aug-14 07:02 324 23.3
2020-Aug-14 06:46 324 23.3
2020-Aug-14 06:31 324 23.3
2020-Aug-14 06:15 324 23.9
2020-Aug-14 06:01 324 23.9
2020-Aug-14 05:46 324 23.9
2020-Aug-14 05:32 324 23.9
2020-Aug-14 05:16 324 23.9
2020-Aug-14 05:01 324 23.9
2020-Aug-14 04:46 324 24.4
2020-Aug-14 04:31 324 24.4
2020-Aug-14 04:16 324 24.4
2020-Aug-14 04:01 324 24.4
2020-Aug-14 03:46 324 24.4
2020-Aug-14 03:31 324 24.4
2020-Aug-14 03:15 324 24.4
2020-Aug-14 03:00 135 24.4
2020-Aug-14 02:46 135 24.4
2020-Aug-14 02:31 135 25.0
2020-Aug-14 02:15 135 25.0
2020-Aug-14 02:01 135 25.0
2020-Aug-14 01:46 118 25.0
2020-Aug-14 01:30 161 25.0
2020-Aug-14 01:16 150 25.0
2020-Aug-14 01:00 134 25.0
2020-Aug-14 00:45 098 25.0
2020-Aug-14 00:15 136 25.0
2020-Aug-14 00:01 203 1 gusting 4 25.0
2020-Aug-13 23:00 129 26.1
2020-Aug-13 22:45 130 26.1
2020-Aug-13 22:30 131 26.1
2020-Aug-13 22:15 131 26.1
2020-Aug-13 22:00 107 26.1
2020-Aug-13 21:45 129 26.1
2020-Aug-13 21:31 090 26.1
2020-Aug-13 21:15 086 0 gusting 3 26.1
2020-Aug-13 21:00 113 26.1
2020-Aug-13 20:45 074 26.1
2020-Aug-13 20:30 124 26.1
2020-Aug-13 20:15 146 26.1
2020-Aug-13 20:00 115 26.7
2020-Aug-13 19:45 133 26.7
2020-Aug-13 19:30 326 26.1
2020-Aug-13 19:15 326 25.6
2020-Aug-13 19:00 326 25.6
2020-Aug-13 18:45 074 25.0
2020-Aug-13 18:30 323 3 gusting 6 25.0
2020-Aug-13 18:16 037 24.4
2020-Aug-13 18:00 037 0 gusting 3 24.4
2020-Aug-13 17:45 038 24.4
2020-Aug-13 17:30 038 24.4
2020-Aug-13 17:15 037 25.0
2020-Aug-13 17:00 344 25.0
2020-Aug-13 16:45 325 25.0
2020-Aug-13 16:30 325 24.4
2020-Aug-13 16:15 341 1 gusting 8 24.4
2020-Aug-13 16:00 342 4 gusting 6 24.4
2020-Aug-13 15:45 038 24.4
2020-Aug-13 15:30 022 0 gusting 3 24.4
2020-Aug-13 15:15 359 2 gusting 6 24.4
2020-Aug-13 15:00 346 2 gusting 6 24.4
2020-Aug-13 14:45 331 2 gusting 5 24.4
2020-Aug-13 14:32 332 3 gusting 5 25.0
2020-Aug-13 14:16 308 26.1
2020-Aug-13 14:01 307 26.1
2020-Aug-13 13:46 120 26.1
2020-Aug-13 13:31 115 26.1
2020-Aug-13 13:17 113 25.6
2020-Aug-13 13:01 098 25.6
2020-Aug-13 12:47 107 25.6
2020-Aug-13 12:30 144 25.0
2020-Aug-13 12:17 127 25.0
2020-Aug-13 12:01 127 25.0
2020-Aug-13 11:46 147 25.0
2020-Aug-13 11:31 127 25.0
2020-Aug-13 11:16 129 25.0
2020-Aug-13 11:01 147 25.0
2020-Aug-13 10:46
2020-Aug-13 10:31
2020-Aug-13 10:15
2020-Aug-13 10:00
2020-Aug-13 09:45
2020-Aug-13 09:30
2020-Aug-13 09:15
2020-Aug-13 09:00 138 23.9
2020-Aug-13 08:45 134 24.4
2020-Aug-13 08:30 134 24.4
2020-Aug-13 08:15 134 24.4
2020-Aug-13 08:00 134 24.4
2020-Aug-13 07:45 122 0 gusting 3 24.4
2020-Aug-13 07:30 167 25.0
2020-Aug-13 07:16 154 25.0
2020-Aug-13 07:01 160 25.6
2020-Aug-13 06:46 283 26.1
2020-Aug-13 06:31 283 26.1
2020-Aug-13 06:16 283 25.6
2020-Aug-13 06:01 273 25.6
2020-Aug-13 05:46 322 25.6
2020-Aug-13 05:31 274 25.6
2020-Aug-13 05:15 264 25.6
2020-Aug-13 05:01 266 0 gusting 2 25.6
2020-Aug-13 04:47 247 25.6
2020-Aug-13 04:31 263 25.6
2020-Aug-13 04:16 276 25.6
2020-Aug-13 04:00 265 0 gusting 2 25.6
2020-Aug-13 03:46 241 25.6
2020-Aug-13 03:31 200 0 gusting 3 25.6
2020-Aug-13 03:16 191 25.6
2020-Aug-13 03:01 210 1 gusting 4 25.6
2020-Aug-13 02:45 231 26.1
2020-Aug-13 02:31 201 0 gusting 5 25.6
2020-Aug-13 02:16 214 0 gusting 4 25.6
2020-Aug-13 02:01 198 0 gusting 6 25.6
2020-Aug-13 01:46 188 2 gusting 6 26.1
2020-Aug-13 01:30 117 2 gusting 4 26.7
2020-Aug-13 01:15 253 26.7
2020-Aug-13 01:00 202 27.2
2020-Aug-13 00:45 260 27.2
2020-Aug-13 00:30 252 0 gusting 4 27.2
2020-Aug-13 00:15 154 27.2
2020-Aug-13 00:00 292 27.2
2020-Aug-12 23:45 286 3 gusting 6 27.2
2020-Aug-12 23:30 331 1 gusting 6 27.2
2020-Aug-12 23:15 233 2 gusting 6 27.8
2020-Aug-12 23:00 176 27.8
2020-Aug-12 22:46 236 3 gusting 6 27.2
2020-Aug-12 22:31 229 1 gusting 4 27.8
2020-Aug-12 22:15 254 1 gusting 5 27.8
2020-Aug-12 22:00 196 1 gusting 5 27.8
2020-Aug-12 21:45 200 1 gusting 5 27.8
2020-Aug-12 21:30 183 0 gusting 6 28.3
2020-Aug-12 21:15 195 28.3
2020-Aug-12 21:00 131 28.3
2020-Aug-12 20:45 142 28.3
2020-Aug-12 20:30 134 28.3
2020-Aug-12 20:15 194 1 gusting 6 28.3
2020-Aug-12 20:00 281 0 gusting 5 28.3
2020-Aug-12 19:45 236 3 gusting 8 28.9
2020-Aug-12 19:30 162 0 gusting 6 28.3
2020-Aug-12 19:15 207 1 gusting 6 28.3
2020-Aug-12 19:00 232 4 gusting 6 28.3
2020-Aug-12 18:45 205 0 gusting 7 27.8
2020-Aug-12 18:30 144 5 gusting 8 27.8
2020-Aug-12 18:15 186 2 gusting 9 28.3
2020-Aug-12 18:00 157 5 gusting 8 28.9
2020-Aug-12 17:45 191 3 gusting 9 29.4
2020-Aug-12 17:30 220 2 gusting 6 30.6
2020-Aug-12 17:15 151 3 gusting 6 30.0
2020-Aug-12 17:00 077 0 gusting 6 30.0
2020-Aug-12 16:45 180 1 gusting 6 30.0
2020-Aug-12 16:30 162 29.4
2020-Aug-12 16:16 117 0 gusting 6 30.0
2020-Aug-12 16:01 206 3 gusting 10 29.4
2020-Aug-12 15:47 151 2 gusting 6 29.4
2020-Aug-12 15:31 200 3 gusting 7 29.4
2020-Aug-12 15:16 126 2 gusting 6 28.9
2020-Aug-12 15:01 191 3 gusting 7 28.9
2020-Aug-12 14:47 162 0 gusting 5 29.4
2020-Aug-12 14:32 141 2 gusting 5 29.4
2020-Aug-12 14:16 259 28.9
2020-Aug-12 14:01 266 27.8